Regional Weather Roundup
Issued by NWS

Home | Current Version | Previous Version | Text Only | Print | Product List | Glossary On
Versions: 1 2 3 4 5 6 7 8 9 10 11 12 13 14 15 16 17 18 19 20 21 22 23 24 25 26 27 28 29 30 31 32 33 34 35 36 37 38 39 40 41 42 43 44 45 46 47 48 49 50
000
ASUS45 KBOI 051110
RWRID

IDAHO REGIONAL WEATHER ROUNDUP
NATIONAL WEATHER SERVICE BOISE ID
400 AM MST MON DEC 05 2016

NOTE: "FAIR" INDICATES FEW OR NO CLOUDS BELOW 12000 FEET
WITH NO SIGNIFICANT WEATHER AND/OR OBSTRUCTIONS TO VISIBILITY

IDZ012-014-051200-
SOUTHWEST IDAHO


CITY           SKY/WX    TMP DP  RH WIND       PRES   REMARKS
BOISE          CLEAR     26  16  65 NW8       30.09R WCI  18
CALDWELL       CLEAR     26  17  68 W9        30.11R WCI  17
MOUNTAIN HOME  CLEAR     25  19  78 NW6       30.07R WCI  18
$$

IDZ016-017-051200-
SOUTHCENTRAL IDAHO


CITY           SKY/WX    TMP DP  RH WIND       PRES   REMARKS
BURLEY         CLEAR     22  16  78 W14G23    29.95R WCI   9
JEROME         CLEAR     21  17  84 W14       30.00R WCI   8
TWIN FALLS     PTCLDY    19  14  81 W20       30.00R WCI   3
$$

IDZ019>023-051200-
SOUTHEAST IDAHO


CITY           SKY/WX    TMP DP  RH WIND       PRES   REMARKS
IDAHO FALLS    CLOUDY    24  13  62 W10       29.84R WCI  14
POCATELLO      CLEAR     23  17  78 SW22G32   29.90R WCI   8
REXBURG        CLOUDY    23   9  55 NW8       29.80R WCI  14
$$

IDZ006-010-011-018-031-032-051200-
CENTRAL IDAHO MOUNTAINS


CITY           SKY/WX    TMP DP  RH WIND       PRES   REMARKS
MCCALL         MOCLDY    10   7  87 CALM      29.94R
HAILEY         CLEAR     23   3  42 N7        29.89R WCI  15
STANLEY          N/A      6   1  80 CALM      29.87R
SALMON         PTCLDY    18  10  73 SE6       29.92R WCI   9
CHALLIS        PTCLDY    20   2  45 NW12      29.88R WCI   8
$$

IDZ002-004-006-007-026-051200-
NORTHERN IDAHO


CITY           SKY/WX    TMP DP  RH WIND       PRES   REMARKS
LEWISTON       CLEAR     30  19  63 SW10      30.09R WCI  21
LOWELL           N/A     28  25  88 CALM      30.12R
COEUR D`ALENE  CLEAR     25  16  68 SW9       30.00R WCI  15
MULLAN PASS    CLOUDY    10   7  87 NW8       29.76R WCI  -2
$$



USA.gov is the U.S. government's official web portal to all federal, state and local government web resources and services.